Location: Newark
(13.6797°N, 8.5297°E)
Time: 13:40:01
(UTC+00:00)

Courier 1B Rocket - Pass Details

Date: 20 January 2020
Orbit: 920 x 1202 km, 28.2° (Epoch: 22 February)

Event Time Altitude Azimuth Distance (km) Brightness Sun altitude
Rises 19:42:46 0° 290° (WNW) 3,548 8.6 -33.9°
Reaches altitude 10° 19:45:22 10° 286° (WNW) 2,616 7.9 -34.5°
Enters shadow 19:50:17 49° 249° (WSW) 1,203 5.7 -35.7°
Maximum altitude 19:51:30 56° 209° (SSW) 1,112 - -35.9°
Drops below altitude 10° 19:57:57 10° 132° (SE) 2,747 - -37.5°
Sets 20:00:46 0° 128° (SE) 3,739 - -38.1°
